EI4HQ Weather Reports


Display with metric or nautical units.
time (UTC)temp
F
wind
direction
speed
MPH
gust
MPH
rain 1hr
in
rain 24hr
in
rain mn
in
humidity
%
barometer
mb
20260905004503 56 271 3.0 6.0 0.00 0.04 0.00 77 1022.3
20260905003603 55 268 3.0 8.0 0.00 0.04 0.00 78 1022.4
20260905002703 55 267 3.0 8.0 0.00 0.04 0.00 78 1022.3
20260905001803 55 274 3.0 8.0 0.00 0.05 0.00 79 1022.2
20260905000903 55 266 4.0 9.0 0.00 0.05 0.00 79 1022.2
20260905000003 55 258 4.0 8.0 0.00 0.05 0.00 78 1022.2
20260904235403 55 261 4.0 8.0 0.00 0.05 0.00 77 1022.1
20260904234503 55 262 3.0 8.0 0.00 0.05 0.00 77 1022.1
20260904233603 55 254 3.0 6.0 0.00 0.05 0.00 76 1022.2
20260904232703 56 251 3.0 7.0 0.00 0.05 0.00 76 1021.9
20260904231803 56 252 2.0 5.0 0.00 0.05 0.00 76 1021.9
20260904230903 56 268 2.0 6.0 0.00 0.05 0.00 75 1021.8
20260904230003 56 268 3.0 7.0 0.00 0.05 0.00 75 1021.7
20260904225403 56 271 3.0 7.0 0.00 0.05 0.05 75 1021.7
20260904224503 56 274 3.0 7.0 0.00 0.05 0.05 75 1021.7
20260904223603 56 263 3.0 7.0 0.00 0.05 0.05 75 1021.7
20260904222703 56 256 2.0 6.0 0.00 0.05 0.05 74 1021.8
20260904221803 56 251 3.0 6.0 0.00 0.05 0.05 73 1021.8
20260904220903 56 251 2.0 4.0 0.00 0.05 0.05 73 1021.8
20260904220003 57 256 2.0 5.0 0.00 0.05 0.05 73 1021.9
20260904215403 57 252 2.0 6.0 0.00 0.05 0.05 72 1021.9
20260904214503 57 251 3.0 8.0 0.00 0.05 0.05 72 1021.9
20260904213603 57 257 3.0 6.0 0.00 0.05 0.05 72 1021.9
20260904212703 57 265 3.0 5.0 0.00 0.07 0.05 71 1021.8
20260904211803 57 269 3.0 8.0 0.00 0.07 0.05 70 1021.7
20260904210903 57 274 2.0 6.0 0.00 0.07 0.05 70 1021.7
20260904210003 57 272 2.0 7.0 0.00 0.07 0.05 70 1021.5
20260904205403 57 269 1.0 4.0 0.00 0.07 0.05 70 1021.5
20260904204503 57 275 1.0 4.0 0.00 0.07 0.05 70 1021.5
20260904203603 57 286 1.0 7.0 0.00 0.07 0.05 70 1021.5
20260904202703 58 268 0.0 2.0 0.00 0.07 0.05 69 1021.4
20260904201803 58 277 1.0 7.0 0.00 0.08 0.05 68 1021.3
20260904200903 58 271 2.0 9.0 0.00 0.09 0.05 68 1021.2
20260904200003 59 273 3.0 9.0 0.00 0.09 0.05 67 1021.0
20260904195403 59 276 3.0 9.0 0.00 0.10 0.05 67 1020.9
20260904194503 59 281 3.0 11.0 0.00 0.13 0.05 66 1020.9
20260904193603 59 292 3.0 11.0 0.00 0.15 0.05 66 1020.6
20260904192703 60 296 3.0 9.0 0.00 0.17 0.05 66 1020.5
20260904191803 60 283 3.0 11.0 0.00 0.18 0.05 67 1020.3
20260904190903 60 289 3.0 11.0 0.00 0.19 0.05 66 1020.2
20260904190003 60 289 3.0 9.0 0.00 0.20 0.05 65 1020.1
20260904185403 61 284 4.0 9.0 0.00 0.22 0.05 65 1020.0
20260904184503 61 286 3.0 9.0 0.00 0.22 0.05 65 1020.0
20260904183603 61 285 4.0 13.0 0.00 0.23 0.05 64 1019.9
20260904182703 61 288 4.0 9.0 0.00 0.23 0.05 63 1020.0
20260904181803 62 281 6.0 16.0 0.00 0.23 0.05 61 1019.8
20260904180903 62 292 5.0 16.0 0.00 0.23 0.05 59 1019.6
20260904180003 62 306 5.0 16.0 0.00 0.23 0.05 59 1019.6
20260904175403 63 305 4.0 12.0 0.00 0.23 0.05 59 1019.5
20260904174503 63 298 4.0 12.0 0.00 0.23 0.05 58 1019.4
20260904173603 64 291 5.0 15.0 0.00 0.23 0.05 58 1019.3
20260904172703 64 278 4.0 12.0 0.00 0.23 0.05 61 1019.2
20260904171803 64 272 5.0 13.0 0.00 0.23 0.05 62 1019.2
20260904170903 65 280 4.0 10.0 0.00 0.23 0.05 61 1019.1
20260904170003 65 277 5.0 14.0 0.00 0.23 0.05 59 1019.0
20260904165403 65 271 5.0 13.0 0.00 0.23 0.05 62 1018.9
20260904164503 65 272 6.0 15.0 0.00 0.23 0.05 61 1018.7
20260904163603 65 280 6.0 14.0 0.00 0.23 0.05 60 1018.5
20260904162703 65 269 5.0 12.0 0.00 0.23 0.05 62 1018.5
20260904161803 65 273 6.0 13.0 0.00 0.23 0.05 63 1018.5
20260904160903 65 283 4.0 11.0 0.00 0.23 0.05 62 1018.5
20260904160003 65 272 6.0 14.0 0.00 0.23 0.05 65 1018.4
20260904155403 65 267 7.0 15.0 0.00 0.23 0.05 64 1018.2
20260904154503 65 267 5.0 12.0 0.00 0.23 0.05 63 1018.2
20260904153603 65 263 5.0 16.0 0.00 0.23 0.05 64 1018.2
20260904152703 65 272 4.0 13.0 0.00 0.23 0.05 65 1018.3
20260904151803 65 264 6.0 13.0 0.00 0.23 0.05 65 1018.3
20260904150903 65 266 4.0 10.0 0.00 0.23 0.05 66 1018.2
20260904150003 65 270 5.0 13.0 0.00 0.23 0.05 66 1018.3
20260904145403 65 276 4.0 13.0 0.00 0.23 0.05 66 1018.2
20260904144503 65 268 5.0 11.0 0.00 0.23 0.05 64 1018.2
20260904143603 65 272 6.0 14.0 0.00 0.23 0.05 65 1018.0
20260904142703 64 284 4.0 10.0 0.00 0.23 0.05 69 1017.8
20260904141803 63 294 4.0 13.0 0.00 0.23 0.05 67 1017.8
20260904140903 63 279 4.0 13.0 0.00 0.23 0.05 68 1017.8
20260904140003 63 272 4.0 10.0 0.00 0.23 0.05 70 1018.0
20260904135403 63 277 5.0 11.0 0.00 0.23 0.05 70 1018.0
20260904134503 62 276 4.0 12.0 0.00 0.23 0.05 69 1017.9
20260904133603 62 276 4.0 10.0 0.00 0.23 0.05 69 1017.7
20260904132703 62 276 4.0 10.0 0.00 0.23 0.05 69 1017.7
20260904131803 62 275 5.0 15.0 0.00 0.23 0.05 68 1017.7
20260904130903 62 293 4.0 10.0 0.00 0.23 0.05 67 1017.7
20260904130003 62 286 3.0 11.0 0.00 0.23 0.05 67 1017.7
20260904125403 62 286 3.0 10.0 0.00 0.23 0.05 68 1017.5
20260904124503 62 279 5.0 14.0 0.00 0.23 0.05 68 1017.5
20260904123603 62 270 4.0 15.0 0.00 0.23 0.05 68 1017.4
20260904122703 62 277 4.0 10.0 0.00 0.23 0.05 68 1017.2
20260904121803 63 286 4.0 10.0 0.00 0.23 0.05 68 1017.0
20260904120903 62 284 4.0 10.0 0.00 0.23 0.05 68 1017.0
20260904120003 62 287 5.0 13.0 0.00 0.23 0.05 68 1017.0
20260904115403 63 286 4.0 12.0 0.00 0.23 0.05 70 1016.9
20260904114503 62 278 5.0 12.0 0.00 0.23 0.05 72 1016.9
20260904113603 62 274 5.0 16.0 0.00 0.23 0.05 72 1016.8
20260904112703 62 275 5.0 12.0 0.00 0.23 0.05 73 1016.8
20260904111803 62 266 5.0 12.0 0.00 0.23 0.05 75 1016.8
20260904110903 62 270 4.0 13.0 0.00 0.23 0.05 76 1016.9
20260904110003 61 270 5.0 11.0 0.00 0.23 0.05 76 1016.6
20260904105403 61 272 4.0 12.0 0.00 0.23 0.05 76 1016.6
20260904104503 61 278 4.0 11.0 0.00 0.23 0.05 76 1016.5
20260904103603 61 281 5.0 14.0 0.00 0.23 0.05 77 1016.4
20260904102703 60 287 5.0 16.0 0.00 0.23 0.05 77 1016.3
20260904101803 60 286 5.0 15.0 0.00 0.23 0.05 78 1016.0
20260904100903 60 273 5.0 11.0 0.00 0.23 0.05 80 1016.0
20260904100003 60 265 5.0 11.0 0.00 0.23 0.05 82 1016.1
20260904095403 60 269 3.0 8.0 0.00 0.23 0.05 83 1016.0
20260904094503 60 255 3.0 9.0 0.00 0.23 0.05 85 1015.9
20260904093603 60 251 4.0 7.0 0.00 0.23 0.05 85 1015.9
20260904092703 59 250 4.0 7.0 0.00 0.23 0.05 86 1015.7
20260904091803 59 249 3.0 8.0 0.00 0.23 0.05 86 1015.7
20260904090903 58 247 3.0 8.0 0.00 0.23 0.05 86 1015.6
20260904090003 58 248 3.0 9.0 0.00 0.23 0.05 87 1015.6
20260904085403 58 249 4.0 10.0 0.00 0.23 0.05 87 1015.5
20260904084503 58 253 4.0 10.0 0.00 0.23 0.05 87 1015.3
20260904083603 57 263 5.0 11.0 0.00 0.23 0.05 88 1015.0
20260904082703 57 263 4.0 10.0 0.00 0.23 0.05 88 1014.9
20260904081803 57 266 4.0 11.0 0.00 0.23 0.05 89 1014.7
20260904080903 57 265 4.0 11.0 0.00 0.23 0.05 89 1014.8
20260904080003 56 265 4.0 8.0 0.00 0.23 0.05 90 1014.6
20260904075403 56 260 4.0 11.0 0.00 0.23 0.05 90 1014.6
20260904074503 56 259 4.0 8.0 0.00 0.23 0.05 90 1014.5
20260904073603 56 258 5.0 11.0 0.00 0.23 0.05 90 1014.6
20260904072703 56 260 4.0 8.0 0.00 0.23 0.05 90 1014.4
20260904071803 56 261 3.0 9.0 0.00 0.23 0.05 91 1014.2
20260904070903 56 266 3.0 7.0 0.00 0.23 0.05 91 1014.0
20260904070003 55 272 4.0 9.0 0.00 0.23 0.05 91 1014.1
20260904065403 55 271 4.0 10.0 0.00 0.23 0.05 91 1013.9
20260904064503 55 268 4.0 10.0 0.00 0.23 0.05 91 1013.8
20260904063603 55 270 4.0 10.0 0.00 0.23 0.05 92 1014.0
20260904062703 55 272 4.0 11.0 0.00 0.23 0.05 92 1013.7
20260904061803 55 273 4.0 10.0 0.00 0.23 0.05 92 1013.7
20260904060903 55 266 4.0 9.0 0.00 0.23 0.05 92 1013.5
20260904060003 55 265 4.0 9.0 0.00 0.23 0.05 92 1013.4
20260904055403 55 262 4.0 8.0 0.00 0.23 0.05 92 1013.3
20260904054503 55 271 5.0 12.0 0.00 0.23 0.05 92 1013.1
20260904053603 56 266 5.0 10.0 0.00 0.23 0.05 92 1013.3
20260904052703 56 261 4.0 10.0 0.00 0.23 0.05 92 1013.2
20260904051803 56 256 4.0 8.0 0.00 0.23 0.05 92 1013.0
20260904050903 56 260 3.0 8.0 0.00 0.23 0.05 92 1013.1
20260904050003 56 267 4.0 11.0 0.00 0.23 0.05 92 1012.9
20260904045403 57 267 3.0 11.0 0.00 0.23 0.05 92 1012.8
20260904044503 57 269 3.0 6.0 0.00 0.23 0.05 92 1013.0
20260904043603 57 265 3.0 7.0 0.00 0.23 0.05 92 1012.8
20260904042703 57 267 3.0 6.0 0.00 0.23 0.05 92 1012.6
20260904041803 58 273 3.0 7.0 0.00 0.23 0.05 92 1012.7
20260904040903 58 269 3.0 9.0 0.00 0.23 0.05 92 1012.4
20260904040003 58 263 4.0 10.0 0.00 0.23 0.05 92 1012.3
20260904035403 58 265 3.0 10.0 0.00 0.23 0.05 92 1012.1
20260904034503 58 270 3.0 8.0 0.00 0.23 0.05 92 1012.3
20260904033603 59 266 2.0 6.0 0.00 0.23 0.05 92 1012.4
20260904032703 59 271 2.0 7.0 0.00 0.23 0.05 92 1012.3
20260904031803 59 268 3.0 8.0 0.00 0.23 0.05 92 1012.2
20260904030903 59 259 3.0 7.0 0.00 0.23 0.05 93 1012.1
20260904030003 59 262 4.0 9.0 0.00 0.23 0.05 93 1011.9
20260904025403 59 258 4.0 9.0 0.00 0.23 0.05 93 1012.2
20260904024503 59 259 4.0 9.0 0.01 0.23 0.05 93 1012.0
20260904023603 59 255 4.0 9.0 0.02 0.23 0.05 93 1011.9
20260904022703 59 251 4.0 9.0 0.02 0.23 0.05 92 1012.1
20260904021803 59 254 4.0 9.0 0.02 0.23 0.05 93 1012.2
20260904020903 59 256 4.0 8.0 0.03 0.23 0.05 92 1012.0
20260904020003 59 259 4.0 8.0 0.04 0.23 0.05 92 1012.0
20260904015403 59 258 4.0 10.0 0.04 0.23 0.05 92 1012.1
20260904014503 59 262 3.0 7.0 0.03 0.22 0.04 92 1012.1
20260904013603 59 259 4.0 10.0 0.02 0.21 0.03 92 1012.0
20260904012703 59 260 3.0 7.0 0.02 0.21 0.03 92 1011.6
20260904011803 59 264 3.0 7.0 0.02 0.20 0.02 92 1011.5
20260904010903 59 262 4.0 8.0 0.02 0.20 0.02 92 1011.6
20260904010003 59 259 4.0 9.0 0.01 0.19 0.01 92 1011.8
20260904005403 59 255 4.0 9.0 0.01 0.19 0.01 92 1011.5